| time (UTC) | temp C | wind direction | speed KPH | gust KPH | rain 1hr cm | rain 24hr cm | rain mn cm | humidity % | barometer mb |
| 20260906095902 | 28 | 9 | 3.2 | 12.9 | 0.00 | 0.00 | 0.00 | 50 | 1022.2 |
| 20260906095402 | 28 | 87 | 1.6 | 12.9 | 0.00 | 0.00 | 0.00 | 49 | 1022.3 |
| 20260906094903 | 28 | 92 | 1.6 | 14.5 | 0.00 | 0.00 | 0.00 | 50 | 1022.3 |
| 20260906094404 | 28 | 82 | 3.2 | 16.1 | 0.00 | 0.00 | 0.00 | 51 | 1022.3 |
| 20260906093905 | 28 | 68 | 3.2 | 16.1 | 0.00 | 0.00 | 0.00 | 51 | 1022.3 |
| 20260906093402 | 28 | 11 | 1.6 | 12.9 | 0.00 | 0.00 | 0.00 | 51 | 1022.4 |
| 20260906092403 | 27 | 355 | 1.6 | 14.5 | 0.00 | 0.00 | 0.00 | 52 | 1022.4 |
| 20260906090903 | 27 | 121 | 1.6 | 17.7 | 0.00 | 0.00 | 0.00 | 52 | 1022.5 |
| 20260906090402 | 27 | 46 | 1.6 | 12.9 | 0.00 | 0.00 | 0.00 | 52 | 1022.5 |
| 20260906085404 | 27 | 101 | 3.2 | 14.5 | 0.00 | 0.00 | 0.00 | 53 | 1022.5 |
| 20260906084903 | 27 | 80 | 3.2 | 16.1 | 0.00 | 0.00 | 0.00 | 53 | 1022.5 |
| 20260906084403 | 27 | 123 | 1.6 | 16.1 | 0.00 | 0.00 | 0.00 | 53 | 1022.5 |
| 20260906083903 | 26 | 92 | 0.0 | 11.3 | 0.00 | 0.00 | 0.00 | 55 | 1022.4 |
| 20260906083403 | 26 | 23 | 1.6 | 14.5 | 0.00 | 0.00 | 0.00 | 55 | 1022.5 |
| 20260906082403 | 26 | 90 | 3.2 | 19.3 | 0.00 | 0.00 | 0.00 | 54 | 1022.4 |
| 20260906081903 | 26 | 93 | 3.2 | 11.3 | 0.00 | 0.00 | 0.00 | 55 | 1022.4 |
| 20260906081402 | 26 | 109 | 1.6 | 14.5 | 0.00 | 0.00 | 0.00 | 56 | 1022.3 |
| 20260906080902 | 26 | 316 | 1.6 | 17.7 | 0.00 | 0.00 | 0.00 | 56 | 1022.3 |
| 20260906080404 | 26 | 86 | 3.2 | 17.7 | 0.00 | 0.00 | 0.00 | 55 | 1022.3 |
| 20260906075902 | 26 | 94 | 3.2 | 16.1 | 0.00 | 0.00 | 0.00 | 55 | 1022.3 |
| 20260906075402 | 26 | 28 | 3.2 | 16.1 | 0.00 | 0.00 | 0.00 | 56 | 1022.3 |
| 20260906074902 | 26 | 23 | 4.8 | 19.3 | 0.00 | 0.00 | 0.00 | 56 | 1022.3 |
| 20260906074402 | 26 | 94 | 6.4 | 19.3 | 0.00 | 0.00 | 0.00 | 56 | 1022.2 |
| 20260906073902 | 26 | 120 | 6.4 | 24.1 | 0.00 | 0.00 | 0.00 | 57 | 1022.2 |
| 20260906073402 | 25 | 83 | 6.4 | 24.1 | 0.00 | 0.00 | 0.00 | 57 | 1022.1 |
| 20260906072402 | 25 | 84 | 4.8 | 19.3 | 0.00 | 0.00 | 0.00 | 58 | 1022.1 |
| 20260906071403 | 25 | 301 | 3.2 | 17.7 | 0.00 | 0.00 | 0.00 | 62 | 1022.0 |
| 20260906070902 | 25 | 38 | 3.2 | 17.7 | 0.00 | 0.00 | 0.00 | 62 | 1022.0 |
| 20260906065903 | 24 | 55 | 1.6 | 14.5 | 0.00 | 0.00 | 0.00 | 65 | 1021.9 |
| 20260906065402 | 24 | 336 | 3.2 | 14.5 | 0.00 | 0.00 | 0.00 | 64 | 1021.9 |
| 20260906064902 | 23 | 59 | 3.2 | 14.5 | 0.00 | 0.00 | 0.00 | 64 | 1021.9 |
| 20260906064402 | 23 | 5 | 3.2 | 11.3 | 0.00 | 0.00 | 0.00 | 65 | 1021.8 |
| 20260906063903 | 23 | 85 | 3.2 | 14.5 | 0.00 | 0.00 | 0.00 | 65 | 1021.6 |
| 20260906063403 | 23 | 67 | 1.6 | 14.5 | 0.00 | 0.00 | 0.00 | 66 | 1021.7 |
| 20260906062903 | 23 | 39 | 1.6 | 12.9 | 0.00 | 0.00 | 0.00 | 66 | 1021.6 |
| 20260906062402 | 23 | 12 | 1.6 | 8.0 | 0.00 | 0.00 | 0.00 | 67 | 1021.6 |
| 20260906061902 | 23 | 51 | 1.6 | 9.7 | 0.00 | 0.00 | 0.00 | 67 | 1021.5 |
| 20260906061402 | 23 | 46 | 3.2 | 11.3 | 0.00 | 0.00 | 0.00 | 68 | 1021.5 |
| 20260906060402 | 22 | 70 | 1.6 | 12.9 | 0.00 | 0.00 | 0.00 | 69 | 1021.5 |
| 20260906055902 | 22 | 5 | 3.2 | 8.0 | 0.00 | 0.00 | 0.00 | 69 | 1021.4 |
| 20260906055357 | 22 | 65 | 1.6 | 9.7 | 0.00 | 0.00 | 0.00 | 69 | 1021.4 |
| 20260906054851 | 22 | 19 | 0.0 | 9.7 | 0.00 | 0.00 | 0.00 | 70 | 1021.3 |
| 20260906054345 | 22 | 24 | 0.0 | 11.3 | 0.00 | 0.00 | 0.00 | 70 | 1021.2 |
| 20260906053839 | 22 | 5 | 0.0 | 11.3 | 0.00 | 0.00 | 0.00 | 70 | 1021.1 |
| 20260906053338 | 22 | 0 | 0.0 | 6.4 | 0.00 | 0.00 | 0.00 | 71 | 1021.0 |
| 20260906052839 | 22 | 21 | 0.0 | 8.0 | 0.00 | 0.00 | 0.00 | 71 | 1021.1 |
| 20260906051838 | 22 | 340 | 3.2 | 8.0 | 0.00 | 0.00 | 0.00 | 71 | 1020.9 |
| 20260906051337 | 22 | 42 | 1.6 | 8.0 | 0.00 | 0.00 | 0.00 | 71 | 1020.9 |
| 20260906050835 | 22 | 32 | 1.6 | 8.0 | 0.00 | 0.00 | 0.00 | 71 | 1020.8 |
| 20260906045833 | 22 | 81 | 0.0 | 1.6 | 0.00 | 0.00 | 0.00 | 71 | 1020.7 |
| 20260906044334 | 22 | 23 | 1.6 | 11.3 | 0.00 | 0.00 | 0.00 | 71 | 1020.6 |
| 20260906043831 | 22 | 86 | 1.6 | 11.3 | 0.00 | 0.00 | 0.00 | 71 | 1020.5 |
| 20260906042832 | 22 | 14 | 1.6 | 8.0 | 0.00 | 0.00 | 0.00 | 70 | 1020.4 |
| 20260906042331 | 22 | 32 | 1.6 | 6.4 | 0.00 | 0.00 | 0.00 | 70 | 1020.3 |
| 20260906041831 | 22 | 40 | 1.6 | 8.0 | 0.00 | 0.00 | 0.00 | 70 | 1020.2 |
| 20260906041331 | 22 | 26 | 1.6 | 9.7 | 0.00 | 0.00 | 0.00 | 70 | 1020.1 |
| 20260906040323 | 22 | 29 | 1.6 | 16.1 | 0.00 | 0.00 | 0.00 | 70 | 1020.1 |
| 20260906035817 | 22 | 28 | 0.0 | 6.4 | 0.00 | 0.00 | 0.00 | 71 | 1020.0 |
| 20260906035314 | 22 | 34 | 1.6 | 8.0 | 0.00 | 0.00 | 0.00 | 71 | 1020.0 |
| 20260906034807 | 22 | 35 | 3.2 | 11.3 | 0.00 | 0.00 | 0.00 | 71 | 1020.0 |
| 20260906033305 | 22 | 34 | 1.6 | 8.0 | 0.00 | 0.00 | 0.00 | 71 | 1019.8 |
| 20260906032806 | 22 | 75 | 0.0 | 8.0 | 0.00 | 0.00 | 0.00 | 71 | 1019.8 |
| 20260906032306 | 22 | 30 | 0.0 | 3.2 | 0.00 | 0.00 | 0.00 | 71 | 1019.9 |
| 20260906031805 | 22 | 16 | 0.0 | 3.2 | 0.00 | 0.00 | 0.00 | 71 | 1019.9 |
| 20260906031304 | 22 | 9 | 0.0 | 6.4 | 0.00 | 0.00 | 0.00 | 71 | 1019.8 |
| 20260906030304 | 22 | 37 | 0.0 | 6.4 | 0.00 | 0.00 | 0.00 | 71 | 1019.8 |
| 20260906025805 | 22 | 0 | 0.0 | 6.4 | 0.00 | 0.00 | 0.00 | 71 | 1019.9 |
| 20260906025306 | 22 | 5 | 0.0 | 6.4 | 0.00 | 0.00 | 0.00 | 71 | 1020.0 |
| 20260906024803 | 22 | 0 | 0.0 | 6.4 | 0.00 | 0.00 | 0.00 | 71 | 1020.0 |
| 20260906024303 | 22 | 5 | 0.0 | 4.8 | 0.00 | 0.00 | 0.00 | 71 | 1019.9 |
| 20260906023303 | 23 | 10 | 1.6 | 9.7 | 0.00 | 0.00 | 0.00 | 72 | 1019.9 |
| 20260906022802 | 23 | 15 | 1.6 | 9.7 | 0.00 | 0.00 | 0.00 | 72 | 1019.9 |
| 20260906022306 | 23 | 32 | 1.6 | 9.7 | 0.00 | 0.00 | 0.00 | 72 | 1019.8 |
| 20260906021758 | 23 | 31 | 1.6 | 11.3 | 0.00 | 0.00 | 0.00 | 72 | 1019.8 |
| 20260906021251 | 23 | 11 | 1.6 | 11.3 | 0.00 | 0.00 | 0.00 | 73 | 1019.7 |
| 20260906020745 | 23 | 17 | 3.2 | 12.9 | 0.00 | 0.00 | 0.00 | 73 | 1019.7 |
| 20260906020239 | 23 | 35 | 1.6 | 12.9 | 0.00 | 0.00 | 0.00 | 74 | 1019.7 |
| 20260906015738 | 23 | 5 | 1.6 | 8.0 | 0.00 | 0.00 | 0.00 | 74 | 1019.7 |
| 20260906014739 | 23 | 13 | 0.0 | 9.7 | 0.00 | 0.00 | 0.00 | 76 | 1019.7 |
| 20260906014240 | 23 | 44 | 1.6 | 9.7 | 0.00 | 0.00 | 0.00 | 76 | 1019.7 |
| 20260906013740 | 23 | 57 | 1.6 | 9.7 | 0.00 | 0.00 | 0.00 | 77 | 1019.6 |
| 20260906013239 | 23 | 32 | 1.6 | 8.0 | 0.00 | 0.00 | 0.00 | 77 | 1019.6 |
| 20260906012738 | 23 | 22 | 1.6 | 6.4 | 0.00 | 0.00 | 0.00 | 78 | 1019.6 |
| 20260906012238 | 23 | 31 | 0.0 | 9.7 | 0.00 | 0.00 | 0.00 | 79 | 1019.6 |
| 20260906011735 | 23 | 27 | 0.0 | 9.7 | 0.00 | 0.00 | 0.00 | 80 | 1019.5 |
| 20260906011233 | 23 | 35 | 0.0 | 4.8 | 0.00 | 0.00 | 0.00 | 80 | 1019.5 |
| 20260906010733 | 23 | 42 | 0.0 | 8.0 | 0.00 | 0.00 | 0.00 | 80 | 1019.5 |
| 20260906010238 | 23 | 0 | 1.6 | 8.0 | 0.00 | 0.00 | 0.00 | 81 | 1019.5 |
| 20260906005733 | 23 | 27 | 1.6 | 6.4 | 0.00 | 0.00 | 0.00 | 81 | 1019.5 |
| 20260906005233 | 23 | 0 | 0.0 | 4.8 | 0.00 | 0.00 | 0.00 | 82 | 1019.5 |
| 20260906004731 | 23 | 41 | 0.0 | 6.4 | 0.00 | 0.00 | 0.00 | 83 | 1019.6 |
| 20260906004232 | 23 | 42 | 0.0 | 6.4 | 0.00 | 0.00 | 0.00 | 83 | 1019.5 |
| 20260906003731 | 23 | 36 | 0.0 | 0.0 | 0.00 | 0.00 | 0.00 | 84 | 1019.5 |
| 20260906003231 | 23 | 19 | 0.0 | 0.0 | 0.00 | 0.00 | 0.00 | 84 | 1019.5 |
| 20260906002734 | 23 | 351 | 0.0 | 0.0 | 0.00 | 0.00 | 0.00 | 84 | 1019.5 |
| 20260906002231 | 23 | 355 | 0.0 | 0.0 | 0.00 | 0.00 | 0.00 | 84 | 1019.6 |
| 20260906001731 | 23 | 5 | 0.0 | 4.8 | 0.00 | 0.00 | 0.00 | 84 | 1019.7 |
| 20260906001231 | 23 | 20 | 0.0 | 4.8 | 0.00 | 0.00 | 0.00 | 84 | 1019.6 |
| 20260906000734 | 23 | 33 | 0.0 | 4.8 | 0.00 | 0.00 | 0.00 | 84 | 1019.6 |
| 20260905235731 | 23 | 56 | 0.0 | 1.6 | 0.00 | 0.00 | 0.00 | 84 | 1019.6 |
| 20260905235232 | 24 | 32 | 0.0 | 6.4 | 0.00 | 0.00 | 0.00 | 84 | 1019.6 |
| 20260905234733 | 24 | 47 | 0.0 | 6.4 | 0.00 | 0.00 | 0.00 | 84 | 1019.5 |
| 20260905234230 | 24 | 32 | 1.6 | 9.7 | 0.00 | 0.00 | 0.00 | 84 | 1019.4 |
| 20260905233731 | 24 | 48 | 1.6 | 9.7 | 0.00 | 0.00 | 0.00 | 84 | 1019.4 |
| 20260905233230 | 24 | 17 | 0.0 | 6.4 | 0.00 | 0.00 | 0.00 | 84 | 1019.4 |
| 20260905232731 | 24 | 34 | 1.6 | 8.0 | 0.00 | 0.00 | 0.00 | 85 | 1019.3 |
| 20260905232230 | 24 | 30 | 0.0 | 8.0 | 0.00 | 0.00 | 0.00 | 86 | 1019.3 |
| 20260905231730 | 24 | 44 | 0.0 | 3.2 | 0.00 | 0.00 | 0.00 | 86 | 1019.3 |
| 20260905231230 | 24 | 32 | 0.0 | 0.0 | 0.00 | 0.00 | 0.00 | 86 | 1019.3 |
| 20260905230728 | 24 | 17 | 0.0 | 0.0 | 0.00 | 0.00 | 0.00 | 86 | 1019.3 |
| 20260905230229 | 24 | 13 | 0.0 | 0.0 | 0.00 | 0.00 | 0.00 | 86 | 1019.3 |
| 20260905225729 | 24 | 46 | 0.0 | 0.0 | 0.00 | 0.00 | 0.00 | 86 | 1019.2 |
| 20260905225227 | 24 | 42 | 0.0 | 0.0 | 0.00 | 0.00 | 0.00 | 86 | 1019.1 |
| 20260905224222 | 24 | 42 | 0.0 | 0.0 | 0.00 | 0.00 | 0.00 | 86 | 1019.1 |
| 20260905223722 | 24 | 51 | 0.0 | 0.0 | 0.00 | 0.00 | 0.00 | 85 | 1019.1 |
| 20260905223223 | 24 | 51 | 0.0 | 0.0 | 0.00 | 0.00 | 0.00 | 85 | 1019.1 |
| 20260905222723 | 24 | 51 | 0.0 | 0.0 | 0.00 | 0.00 | 0.00 | 85 | 1019.1 |
| 20260905222223 | 24 | 107 | 0.0 | 0.0 | 0.00 | 0.00 | 0.00 | 85 | 1019.1 |
| 20260905221721 | 25 | 111 | 0.0 | 0.0 | 0.00 | 0.00 | 0.00 | 84 | 1019.0 |
| 20260905221219 | 25 | 182 | 0.0 | 0.0 | 0.00 | 0.00 | 0.00 | 84 | 1019.0 |
| 20260905220716 | 25 | 182 | 0.0 | 0.0 | 0.00 | 0.00 | 0.00 | 84 | 1018.9 |
| 20260905220215 | 25 | 182 | 0.0 | 0.0 | 0.00 | 0.00 | 0.00 | 84 | 1018.8 |
| 20260905215714 | 25 | 182 | 0.0 | 0.0 | 0.00 | 0.00 | 0.00 | 84 | 1018.7 |
| 20260905215215 | 25 | 182 | 0.0 | 0.0 | 0.00 | 0.00 | 0.00 | 84 | 1018.7 |
| 20260905214714 | 25 | 182 | 0.0 | 0.0 | 0.00 | 0.00 | 0.00 | 84 | 1018.7 |
| 20260905214214 | 25 | 182 | 0.0 | 0.0 | 0.00 | 0.00 | 0.00 | 84 | 1018.6 |
| 20260905213714 | 25 | 182 | 0.0 | 0.0 | 0.00 | 0.00 | 0.00 | 84 | 1018.6 |
| 20260905213214 | 25 | 182 | 0.0 | 0.0 | 0.00 | 0.00 | 0.00 | 83 | 1018.5 |
| 20260905212711 | 25 | 182 | 0.0 | 0.0 | 0.00 | 0.00 | 0.00 | 83 | 1018.4 |
| 20260905212211 | 25 | 182 | 0.0 | 0.0 | 0.00 | 0.00 | 0.00 | 83 | 1018.3 |
| 20260905211710 | 25 | 182 | 0.0 | 0.0 | 0.00 | 0.00 | 0.00 | 83 | 1018.3 |
| 20260905211208 | 25 | 182 | 0.0 | 0.0 | 0.00 | 0.00 | 0.00 | 83 | 1018.2 |
| 20260905210706 | 25 | 182 | 0.0 | 0.0 | 0.00 | 0.00 | 0.00 | 83 | 1018.2 |
| 20260905205706 | 25 | 182 | 0.0 | 0.0 | 0.00 | 0.00 | 0.00 | 82 | 1018.2 |
| 20260905205203 | 25 | 182 | 0.0 | 0.0 | 0.00 | 0.00 | 0.00 | 82 | 1018.3 |
| 20260905204703 | 25 | 182 | 0.0 | 0.0 | 0.00 | 0.00 | 0.00 | 82 | 1018.3 |
| 20260905204204 | 25 | 182 | 0.0 | 0.0 | 0.00 | 0.00 | 0.00 | 81 | 1018.3 |
| 20260905203203 | 25 | 182 | 0.0 | 0.0 | 0.00 | 0.00 | 0.00 | 81 | 1018.3 |
| 20260905202703 | 25 | 182 | 0.0 | 0.0 | 0.00 | 0.00 | 0.00 | 81 | 1018.4 |
| 20260905201702 | 25 | 182 | 0.0 | 0.0 | 0.00 | 0.00 | 0.00 | 80 | 1018.3 |
| 20260905201202 | 26 | 182 | 0.0 | 0.0 | 0.00 | 0.00 | 0.00 | 80 | 1018.2 |
| 20260905200703 | 26 | 182 | 0.0 | 3.2 | 0.00 | 0.00 | 0.00 | 80 | 1018.2 |
| 20260905200204 | 26 | 183 | 0.0 | 3.2 | 0.00 | 0.00 | 0.00 | 80 | 1018.1 |
| 20260905195703 | 26 | 183 | 0.0 | 3.2 | 0.00 | 0.00 | 0.00 | 79 | 1018.1 |
| 20260905195203 | 26 | 178 | 0.0 | 1.6 | 0.00 | 0.00 | 0.00 | 79 | 1018.0 |
| 20260905194702 | 26 | 174 | 0.0 | 0.0 | 0.00 | 0.00 | 0.00 | 79 | 1017.9 |
| 20260905193702 | 26 | 164 | 0.0 | 0.0 | 0.00 | 0.00 | 0.00 | 78 | 1017.7 |
| 20260905193203 | 26 | 163 | 0.0 | 0.0 | 0.00 | 0.00 | 0.00 | 78 | 1017.6 |
| 20260905192702 | 26 | 167 | 0.0 | 0.0 | 0.00 | 0.00 | 0.00 | 78 | 1017.6 |
| 20260905192203 | 26 | 167 | 0.0 | 0.0 | 0.00 | 0.00 | 0.00 | 77 | 1017.5 |
| 20260905191701 | 26 | 167 | 0.0 | 0.0 | 0.00 | 0.00 | 0.00 | 77 | 1017.5 |
| 20260905191155 | 26 | 167 | 0.0 | 6.4 | 0.00 | 0.00 | 0.00 | 77 | 1017.3 |
| 20260905190649 | 26 | 167 | 0.0 | 6.4 | 0.00 | 0.00 | 0.00 | 77 | 1017.2 |
| 20260905190143 | 26 | 154 | 0.0 | 4.8 | 0.00 | 0.00 | 0.00 | 77 | 1017.1 |
| 20260905185637 | 27 | 146 | 0.0 | 3.2 | 0.00 | 0.00 | 0.00 | 77 | 1017.1 |
| 20260905185135 | 27 | 138 | 1.6 | 4.8 | 0.00 | 0.00 | 0.00 | 77 | 1017.1 |
| 20260905184633 | 27 | 136 | 1.6 | 4.8 | 0.00 | 0.00 | 0.00 | 77 | 1017.0 |
| 20260905184135 | 27 | 171 | 1.6 | 4.8 | 0.00 | 0.00 | 0.00 | 76 | 1016.9 |
| 20260905183134 | 27 | 119 | 0.0 | 0.0 | 0.00 | 0.00 | 0.00 | 76 | 1016.6 |
| 20260905182631 | 27 | 130 | 0.0 | 0.0 | 0.00 | 0.00 | 0.00 | 75 | 1016.6 |
| 20260905182131 | 27 | 150 | 0.0 | 0.0 | 0.00 | 0.00 | 0.00 | 74 | 1016.5 |
| 20260905181631 | 27 | 107 | 0.0 | 4.8 | 0.00 | 0.00 | 0.00 | 73 | 1016.4 |
| 20260905181130 | 27 | 121 | 0.0 | 4.8 | 0.00 | 0.00 | 0.00 | 72 | 1016.3 |
| 20260905180131 | 28 | 105 | 0.0 | 1.6 | 0.00 | 0.00 | 0.00 | 71 | 1016.3 |
| 20260905175627 | 28 | 137 | 0.0 | 4.8 | 0.00 | 0.00 | 0.00 | 70 | 1016.2 |
| 20260905175127 | 28 | 117 | 0.0 | 4.8 | 0.00 | 0.00 | 0.00 | 69 | 1016.1 |
| 20260905174122 | 28 | 123 | 0.0 | 11.3 | 0.00 | 0.00 | 0.00 | 68 | 1016.0 |
| 20260905173619 | 29 | 175 | 1.6 | 11.3 | 0.00 | 0.00 | 0.00 | 67 | 1016.0 |
| 20260905173120 | 29 | 96 | 0.0 | 6.4 | 0.00 | 0.00 | 0.00 | 66 | 1016.0 |
| 20260905172619 | 30 | 164 | 0.0 | 4.8 | 0.00 | 0.00 | 0.00 | 65 | 1015.9 |
| 20260905172117 | 30 | 117 | 1.6 | 6.4 | 0.00 | 0.00 | 0.00 | 65 | 1015.8 |
| 20260905171617 | 30 | 139 | 0.0 | 6.4 | 0.00 | 0.00 | 0.00 | 64 | 1015.8 |
| 20260905170617 | 30 | 155 | 0.0 | 8.0 | 0.00 | 0.00 | 0.00 | 63 | 1015.8 |
| 20260905170114 | 31 | 119 | 1.6 | 8.0 | 0.00 | 0.00 | 0.00 | 62 | 1015.7 |
| 20260905165614 | 31 | 138 | 1.6 | 6.4 | 0.00 | 0.00 | 0.00 | 61 | 1015.6 |
| 20260905165113 | 31 | 92 | 0.0 | 6.4 | 0.00 | 0.00 | 0.00 | 61 | 1015.6 |
| 20260905164613 | 31 | 150 | 1.6 | 9.7 | 0.00 | 0.00 | 0.00 | 60 | 1015.6 |
| 20260905164114 | 31 | 150 | 1.6 | 12.9 | 0.00 | 0.00 | 0.00 | 59 | 1015.5 |
| 20260905163611 | 32 | 136 | 3.2 | 14.5 | 0.00 | 0.00 | 0.00 | 57 | 1015.4 |
| 20260905163111 | 33 | 106 | 3.2 | 14.5 | 0.00 | 0.00 | 0.00 | 55 | 1015.4 |
| 20260905162611 | 33 | 165 | 1.6 | 9.7 | 0.00 | 0.00 | 0.00 | 51 | 1015.4 |
| 20260905161112 | 34 | 193 | 0.0 | 0.0 | 0.00 | 0.00 | 0.00 | 43 | 1015.3 |
| 20260905160611 | 34 | 193 | 0.0 | 0.0 | 0.00 | 0.00 | 0.00 | 43 | 1015.4 |
| 20260905160110 | 34 | 248 | 0.0 | 0.0 | 0.00 | 0.00 | 0.00 | 44 | 1015.3 |
| 20260905155610 | 34 | 249 | 0.0 | 0.0 | 0.00 | 0.00 | 0.00 | 43 | 1015.3 |
| 20260905155109 | 34 | 262 | 0.0 | 0.0 | 0.00 | 0.00 | 0.00 | 41 | 1015.3 |
| 20260905154611 | 35 | 194 | 0.0 | 0.0 | 0.00 | 0.00 | 0.00 | 42 | 1015.2 |
| 20260905154105 | 35 | 139 | 0.0 | 3.2 | 0.00 | 0.00 | 0.00 | 42 | 1015.2 |
| 20260905153105 | 35 | 206 | 0.0 | 6.4 | 0.00 | 0.00 | 0.00 | 42 | 1015.2 |
| 20260905152605 | 34 | 173 | 0.0 | 6.4 | 0.00 | 0.00 | 0.00 | 43 | 1015.2 |
| 20260905152105 | 34 | 169 | 0.0 | 0.0 | 0.00 | 0.00 | 0.00 | 44 | 1015.1 |
| 20260905151606 | 34 | 202 | 0.0 | 0.0 | 0.00 | 0.00 | 0.00 | 43 | 1015.1 |
| 20260905151106 | 34 | 106 | 0.0 | 0.0 | 0.00 | 0.00 | 0.00 | 44 | 1015.1 |
| 20260905150106 | 33 | 164 | 0.0 | 4.8 | 0.00 | 0.00 | 0.00 | 44 | 1015.1 |
| 20260905145106 | 33 | 96 | 0.0 | 3.2 | 0.00 | 0.00 | 0.00 | 45 | 1015.1 |
| 20260905144605 | 33 | 270 | 1.6 | 11.3 | 0.00 | 0.00 | 0.00 | 44 | 1015.1 |
| 20260905144105 | 34 | 238 | 1.6 | 11.3 | 0.00 | 0.00 | 0.00 | 43 | 1015.2 |
| 20260905143607 | 33 | 123 | 1.6 | 4.8 | 0.00 | 0.00 | 0.00 | 44 | 1015.2 |
| 20260905143108 | 33 | 250 | 1.6 | 4.8 | 0.00 | 0.00 | 0.00 | 45 | 1015.3 |
| 20260905142105 | 33 | 252 | 0.0 | 6.4 | 0.00 | 0.00 | 0.00 | 45 | 1015.3 |
| 20260905141604 | 33 | 257 | 0.0 | 3.2 | 0.00 | 0.00 | 0.00 | 46 | 1015.2 |
| 20260905141105 | 33 | 236 | 0.0 | 3.2 | 0.00 | 0.00 | 0.00 | 45 | 1015.3 |
| 20260905140605 | 32 | 217 | 0.0 | 0.0 | 0.00 | 0.00 | 0.00 | 46 | 1015.3 |
| 20260905140103 | 32 | 280 | 0.0 | 3.2 | 0.00 | 0.00 | 0.00 | 46 | 1015.4 |
| 20260905135102 | 32 | 271 | 0.0 | 9.7 | 0.00 | 0.00 | 0.00 | 47 | 1015.5 |
| 20260905134603 | 32 | 244 | 1.6 | 11.3 | 0.00 | 0.00 | 0.00 | 47 | 1015.5 |
| 20260905134104 | 32 | 286 | 1.6 | 12.9 | 0.00 | 0.00 | 0.00 | 47 | 1015.5 |
| 20260905133602 | 31 | 245 | 0.0 | 12.9 | 0.00 | 0.00 | 0.00 | 49 | 1015.6 |
| 20260905133103 | 31 | 304 | 0.0 | 6.4 | 0.00 | 0.00 | 0.00 | 48 | 1015.6 |
| 20260905132602 | 31 | 290 | 1.6 | 11.3 | 0.00 | 0.00 | 0.00 | 48 | 1015.7 |
| 20260905132103 | 31 | 9 | 0.0 | 11.3 | 0.00 | 0.00 | 0.00 | 47 | 1015.7 |
| 20260905131102 | 31 | 329 | 0.0 | 8.0 | 0.00 | 0.00 | 0.00 | 47 | 1015.7 |
| 20260905125602 | 31 | 262 | 0.0 | 1.6 | 0.00 | 0.00 | 0.00 | 49 | 1015.9 |
| 20260905124102 | 31 | 262 | 1.6 | 11.3 | 0.00 | 0.00 | 0.00 | 48 | 1016.1 |
| 20260905123102 | 31 | 252 | 0.0 | 8.0 | 0.00 | 0.00 | 0.00 | 49 | 1016.2 |
| 20260905122602 | 31 | 258 | 0.0 | 0.0 | 0.00 | 0.00 | 0.00 | 49 | 1016.3 |
| 20260905122103 | 31 | 248 | 0.0 | 0.0 | 0.00 | 0.00 | 0.00 | 50 | 1016.3 |
| 20260905121602 | 31 | 250 | 0.0 | 0.0 | 0.00 | 0.00 | 0.00 | 50 | 1016.4 |
| 20260905121105 | 31 | 234 | 0.0 | 0.0 | 0.00 | 0.00 | 0.00 | 50 | 1016.4 |
| 20260905115601 | 31 | 67 | 0.0 | 0.0 | 0.00 | 0.00 | 0.00 | 51 | 1016.4 |
| 20260905115102 | 31 | 250 | 0.0 | 0.0 | 0.00 | 0.00 | 0.00 | 51 | 1016.5 |
| 20260905114603 | 31 | 232 | 0.0 | 0.0 | 0.00 | 0.00 | 0.00 | 52 | 1016.5 |
| 20260905114102 | 31 | 194 | 0.0 | 0.0 | 0.00 | 0.00 | 0.00 | 53 | 1016.5 |
| 20260905113603 | 30 | 198 | 0.0 | 0.0 | 0.00 | 0.00 | 0.00 | 55 | 1016.5 |
| 20260905113104 | 31 | 280 | 0.0 | 0.0 | 0.00 | 0.00 | 0.00 | 53 | 1016.5 |
| 20260905112604 | 31 | 184 | 0.0 | 0.0 | 0.00 | 0.00 | 0.00 | 55 | 1016.5 |
| 20260905112101 | 30 | 171 | 0.0 | 0.0 | 0.00 | 0.00 | 0.00 | 56 | 1016.5 |
| 20260905111602 | 30 | 176 | 0.0 | 0.0 | 0.00 | 0.00 | 0.00 | 57 | 1016.5 |
| 20260905111102 | 30 | 223 | 0.0 | 0.0 | 0.00 | 0.00 | 0.00 | 56 | 1016.5 |
| 20260905110602 | 30 | 147 | 0.0 | 0.0 | 0.00 | 0.00 | 0.00 | 58 | 1016.5 |
| 20260905105603 | 29 | 215 | 0.0 | 0.0 | 0.00 | 0.00 | 0.00 | 59 | 1016.5 |
| 20260905105105 | 29 | 240 | 0.0 | 0.0 | 0.00 | 0.00 | 0.00 | 59 | 1016.6 |
| 20260905104602 | 29 | 259 | 0.0 | 0.0 | 0.00 | 0.00 | 0.00 | 59 | 1016.7 |
| 20260905103603 | 28 | 253 | 0.0 | 0.0 | 0.00 | 0.00 | 0.00 | 61 | 1016.7 |
| 20260905103102 | 28 | 250 | 0.0 | 0.0 | 0.00 | 0.00 | 0.00 | 62 | 1016.7 |
| 20260905102602 | 28 | 355 | 0.0 | 0.0 | 0.00 | 0.00 | 0.00 | 63 | 1016.6 |
| 20260905102101 | 28 | 355 | 0.0 | 0.0 | 0.00 | 0.00 | 0.00 | 62 | 1016.6 |
| 20260905101600 | 28 | 355 | 0.0 | 0.0 | 0.00 | 0.00 | 0.00 | 63 | 1016.6 |
| 20260905101102 | 28 | 355 | 0.0 | 0.0 | 0.00 | 0.00 | 0.00 | 64 | 1016.7 |